Home   Weather   Key West   Past weeks
Flag for USA

Past Weather in Key West, Florida, USA — Yesterday and Last 2 Weeks

Now
78 °F

Clear.


Feels Like: 81 °F
Forecast: 81 / 76 °F
Wind: 16 mph from Southeast

Location: Key West International Airport

Current Time: Feb 20, 2019 at 1:02:33 am

Latest Report: Feb 19, 2019 at 11:53 pm


Visibility: 10 mi

Pressure: 30.09 "Hg

Humidity: 82%

Dew Point: 72 °F

Location of Key WestLocation

Past Weather in Key West — Graph

°F

Key West Temperature Yesterday

Maximum temperature yesterday: 83 °F (at 10:53 am)
Minimum temperature yesterday: 78 °F (at 4:53 am)
Average temperature yesterday: 80 °F

High & Low Weather Summary for the Past Weeks

 TemperatureHumidityPressure
High83 °F (Feb 12, 2:53 pm)94% (Feb 13, 2:53 pm)30.27 "Hg (Feb 13, 2:53 pm)
Low64 °F (Feb 14, 5:53 am)56% (Feb 7, 12:53 pm)29.90 "Hg (Feb 16, 4:53 am)
Average75 °F78%30.07 "Hg
* Reported Feb 4 11:53 pm — Feb 19 11:53 pm, Key West. Weather by CustomWeather, © 2019

Note: Actual official high and low records may vary slightly from our data, if they occured in-between our weather recording intervals... More about our weather records

Advertising

Key West Weather History for the Previous 24 Hours

Scroll right to see more
 ConditionsComfort  
Time TempWeatherWind HumidityBarometerVisibility
11:53 pm
Tue, Feb 19
78 °FClear.16 mph82%30.09 "Hg10 mi
10:53 pm79 °FClear.17 mph79%30.09 "Hg10 mi
9:53 pm79 °FClear.20 mph79%30.09 "Hg10 mi
8:53 pm79 °FClear.17 mph79%30.09 "Hg10 mi
7:53 pm79 °FClear.17 mph79%30.08 "Hg10 mi
6:53 pm79 °FPassing clouds.15 mph77%30.08 "Hg10 mi
5:53 pm79 °FPassing clouds.16 mph74%30.08 "Hg10 mi
4:53 pm81 °FScattered clouds.17 mph69%30.09 "Hg10 mi
3:53 pm82 °FSunny.15 mph67%30.09 "Hg10 mi
3:00 pm82 °FSunny.14 mph67%30.10 "Hg10 mi
1:53 pm83 °FPartly sunny.14 mph68%30.12 "Hg10 mi
12:53 pm83 °FSunny.14 mph68%30.15 "Hg10 mi
11:53 am83 °FSunny.14 mph70%30.17 "Hg10 mi
10:53 am83 °FSunny.14 mph72%30.19 "Hg10 mi
9:53 am81 °FSunny.14 mph77%30.18 "Hg10 mi
8:53 am80 °FSunny.13 mph76%30.17 "Hg10 mi
7:53 am79 °FSunny.14 mph79%30.15 "Hg10 mi
6:53 am78 °FPassing clouds.15 mph84%30.13 "Hg10 mi
5:53 am78 °FClear.13 mph84%30.11 "Hg10 mi
4:53 am78 °FClear.14 mph84%30.11 "Hg10 mi
3:53 am79 °FClear.13 mph82%30.11 "Hg10 mi
2:53 am79 °FClear.10 mph84%30.12 "Hg10 mi
1:53 am79 °FPassing clouds.12 mph84%30.13 "Hg10 mi
1:33 am79 °FPassing clouds.12 mph84%30.14 "Hg10 mi
1:22 am79 °FPartly cloudy.12 mph84%30.14 "Hg10 mi
Weather by CustomWeather, © 2019

See weather overview